[[[{"header":{"parameterUnit":"kt","parameterCategory":2,"dx":1,"dy":1,"la1":30.253999710083008,"la2":30.299108505249023,"lo1":-89.0895004272461,"lo2":-89.04439544677734,"nx":28,"ny":28,"refTime":"2022-09-20T09:00:00:Z","depth":0,"parameterNumber":1,"parameterNumberName":"U-component_of_WINDS"},"data":[2.8004,2.8063,2.804,2.8097,2.8085,2.8121,2.8126,2.813,2.8128,2.8167,2.8186,2.8169,2.8157,2.8175,2.8194,2.8186,2.8197,2.8236,2.822,2.8067,2.8044,2.8023,2.8008,2.8238,2.8238,2.8383,2.8385,2.8386,2.7898,2.7888,2.791,2.7916,2.7936,2.7885,2.7885,2.7905,2.7938,2.7935,2.7951,2.7984,2.8007,2.7981,2.8,2.8028,2.8005,2.8035,2.8034,2.8033,2.7868,2.7852,2.8053,2.8053,2.8053,2.8053,2.8053,2.8053,2.7699,2.7734,2.7724,2.7748,2.7744,2.7748,2.7778,2.7755,2.7777,2.7792,2.7758,2.7795,2.7787,2.7796,2.7793,2.7822,2.7785,2.781,2.7817,2.7825,2.7837,2.7637,2.7823,2.7823,2.7822,2.7821,2.7821,0,2.7546,2.7524,2.7542,2.7555,2.7571,2.7578,2.758,2.7598,2.7542,2.7562,2.7589,2.7601,2.7624,2.7648,2.7659,2.765,2.76,2.7591,2.7608,2.7627,2.7643,2.7639,2.7373,2.7586,2.7584,2.7582,2.7581,2.758,2.7345,2.7388,2.7364,2.7381,2.7376,2.7403,2.7415,2.7361,2.7376,2.7371,2.7405,2.7427,2.7442,2.749,2.7462,2.7479,2.7455,2.754,2.7458,2.7474,2.746,2.7459,2.7465,2.7558,2.7561,2.7563,2.7565,0,2.7236,2.7195,2.7253,2.7224,2.7218,2.7266,2.7242,2.7275,2.7247,2.7289,2.7296,2.7253,2.7281,2.7238,2.7261,2.7238,2.7321,2.7295,2.7324,2.7318,2.7391,2.7386,2.7631,2.7662,2.7419,2.7421,2.7423,0,2.705,2.7108,2.7043,2.7079,2.7143,2.7086,2.715,2.7133,2.7123,2.7155,2.7089,2.7121,2.7061,2.7087,2.7053,2.7113,2.7116,2.7103,2.7094,2.711,2.7113,2.7119,2.711,2.7067,2.7066,2.7065,2.7064,0,2.6884,2.6916,2.6973,2.6974,2.6948,2.6977,2.6967,2.6955,2.6966,2.6974,2.6981,2.6994,2.7002,2.7013,2.697,2.6916,2.704,2.6957,2.7027,2.7029,2.7059,2.7058,2.7283,2.7062,2.7062,2.7062,2.7061,0,2.6728,2.6735,2.6824,2.6801,2.6812,2.6849,2.6858,2.6879,2.6871,2.6852,2.6857,2.6808,2.6854,2.6775,2.6838,2.6781,2.6793,2.6783,2.6787,2.6791,2.6705,2.6842,2.7058,2.708,2.6793,2.679,2.6788,0,2.6551,2.6628,2.658,2.6665,2.6695,2.6619,2.6659,2.6653,2.663,2.6653,2.6627,2.6653,2.6585,2.6587,2.6623,2.6599,2.6673,2.6587,2.6624,2.6626,2.6632,2.683,2.6874,2.7015,2.6759,2.6762,2.6764,0,2.6409,2.6375,2.6393,2.6392,2.6373,2.6396,2.6443,2.6455,2.6473,2.6472,2.6511,2.6544,2.6495,2.6498,2.6459,2.65,2.6621,2.6441,2.644,2.6478,2.6739,2.6781,2.6805,2.6586,2.659,2.6593,2.6741,0,2.6188,2.622,2.6266,2.6263,2.6274,2.6323,2.6276,2.6293,2.6255,2.6229,2.6283,2.6265,2.6278,2.6291,2.6253,2.6358,2.6334,2.6281,2.6203,2.6332,2.638,2.6399,2.6136,2.6133,2.6131,2.6129,0,0,2.6031,2.6075,2.6018,2.6059,2.6065,2.5984,2.6042,2.6038,2.6032,2.6039,2.5994,2.604,2.6027,2.6098,2.6135,2.6139,2.6154,2.611,2.627,2.6286,2.6301,2.6353,2.6374,2.6125,2.6124,2.6124,2.6123,0,2.5941,2.5927,2.5983,2.5976,2.5964,2.5933,2.5946,2.592,2.5906,2.5957,2.589,2.5917,2.5953,2.5949,2.5952,2.61,2.6049,2.6107,2.6203,2.625,2.6269,2.6285,2.634,2.6361,2.6117,2.6118,2.6118,0,2.5794,2.5774,2.5795,2.5802,2.5792,2.5824,2.573,2.5766,2.5789,2.5698,2.575,2.5734,2.5724,2.5796,2.5826,2.5787,2.5956,2.5893,2.5905,2.5908,2.5951,2.5974,2.5994,2.5728,2.5727,2.5726,0,0,2.5722,2.575,2.5711,2.5778,2.5777,2.5731,2.5742,2.5704,2.5695,2.5693,2.567,2.5665,2.5686,2.5701,2.5717,2.5802,2.5797,2.5847,2.5865,2.588,2.5892,2.5939,2.5961,2.5722,2.5721,2.5721,0,0,2.5688,2.5645,2.5606,2.5678,2.5673,2.5639,2.5683,2.5635,2.5644,2.5633,2.5571,2.5566,2.5632,2.5619,2.5566,2.5689,2.5612,2.5624,2.5696,2.5718,2.5736,2.5739,2.5467,0,0,0,0,0,2.557,2.565,2.5616,2.562,2.5628,2.5658,2.5658,2.5608,2.5555,2.5592,2.5565,2.5508,2.5578,2.553,2.5536,2.5596,2.5665,2.5675,2.5685,2.5797,2.5821,2.5842,0,0,0,0,0,0,2.5572,2.5578,2.5613,2.5583,2.5584,2.5654,2.5554,2.5543,2.555,2.5539,2.5515,2.5508,2.5466,2.5523,2.5529,2.5587,2.5465,2.5669,2.5678,2.5685,2.5806,2.5825,2.5842,0,0,0,0,0,2.5572,2.5577,2.5602,2.5582,2.5583,2.5535,2.5551,2.554,2.5545,2.5504,2.5494,2.5507,2.5469,2.5471,2.5526,2.5586,2.546,2.5463,2.5675,2.5681,2.5687,2.5815,0,0,0,0,0,0,2.5573,2.5568,2.5601,2.56,2.5547,2.553,2.5525,2.5539,2.5509,2.55,2.5492,2.5483,2.5472,2.5473,2.5475,2.5588,2.5457,2.5459,2.5461,2.568,2.5685,2.569,0,0,0,0,0,0,2.5565,2.5567,2.56,2.556,2.5553,2.5526,2.5522,2.5561,2.551,2.5498,2.549,2.5488,2.5469,2.5475,2.5476,2.5539,2.5454,2.5456,2.5458,2.5459,2.5684,2.5688,0,0,0,0,0,0,2.5565,2.5567,2.556,2.5555,2.5549,2.5528,2.556,2.5571,2.5474,2.5501,2.5464,2.546,2.5473,2.5473,2.5477,2.5541,2.554,2.5454,2.5455,2.5457,2.5457,0,0,0,0,0,0,0,2.5565,2.5564,2.561,2.5551,2.5545,2.5586,2.5585,2.5585,2.5473,2.5469,2.5465,2.5462,2.544,2.5442,2.5445,2.5542,0,0,2.5454,2.5455,0,0,0,0,0,0,0,0,2.5562,2.5564,2.561,2.561,2.561,2.5586,2.5585,2.5585,2.5473,2.5469,2.5466,2.5463,2.544,2.5443,2.5445,0,0,0,0,0,0,0,0,0,0,0,0,0,0,0,2.561,2.561,0,2.5586,2.5585,2.5585,2.5472,2.5469,2.5467,2.5464,2.5441,2.5443,2.5445,0,0,0,0,0,0,0,0,0,0,0,0,0,0,0,0,0,0,0,0,0,0,0,0,0,0,0,0,0,0,0,0,0,0,0,0,0,0,0,0,0,0,0,0,0,0,0,0,0,0,0,0,0,0,0,0,0,0,0,0,0,0,0,0,0,0,0,0,0]}],[{"header":{"parameterUnit":"kt","parameterCategory":2,"dx":1,"dy":1,"la1":30.253999710083008,"la2":30.299108505249023,"lo1":-89.0895004272461,"lo2":-89.04439544677734,"nx":28,"ny":28,"refTime":"2022-09-20T09:00:00:Z","depth":0,"parameterNumber":2,"parameterNumberName":"V-component_of_WINDS"},"data":[-4.0521,-4.0629,-4.0649,-4.0781,-4.0821,-4.0915,-4.0955,-4.1008,-4.1055,-4.1169,-4.1237,-4.1267,-4.1321,-4.1407,-4.1482,-4.1493,-4.1524,-4.1548,-4.1558,-4.1431,-4.1415,-4.1399,-4.1375,-4.1555,-4.1555,-4.1686,-4.1687,-4.1688,-4.0427,-4.0468,-4.0544,-4.0631,-4.0696,-4.0684,-4.0752,-4.0807,-4.0891,-4.095,-4.1018,-4.1119,-4.1201,-4.1247,-4.1329,-4.138,-4.1379,-4.14,-4.1397,-4.1406,-4.1271,-4.1246,-4.14,-4.14,-4.14,-4.14,-4.14,-4.14,-4.0262,-4.0326,-4.039,-4.0473,-4.0522,-4.058,-4.0644,-4.068,-4.0753,-4.0842,-4.085,-4.0945,-4.1006,-4.1114,-4.1154,-4.1228,-4.1207,-4.1237,-4.1245,-4.1252,-4.1258,-4.1067,-4.1243,-4.1242,-4.1242,-4.1242,-4.1242,0,-4.0148,-4.016,-4.0234,-4.0314,-4.0375,-4.0438,-4.05,-4.054,-4.0571,-4.063,-4.0718,-4.0772,-4.0877,-4.0961,-4.1042,-4.1078,-4.1071,-4.1072,-4.1093,-4.1091,-4.1079,-4.1087,-4.0867,-4.1067,-4.1065,-4.1064,-4.1064,-4.1063,-3.9983,-4.0056,-4.0132,-4.0181,-4.0219,-4.0298,-4.0349,-4.0371,-4.0424,-4.0502,-4.0557,-4.0641,-4.071,-4.0847,-4.0886,-4.0965,-4.0962,-4.1036,-4.0974,-4.0969,-4.0964,-4.096,-4.0967,-4.1048,-4.105,-4.1051,-4.1053,0,-3.9889,-3.992,-4.0038,-4.0106,-4.0125,-4.02,-4.0257,-4.0322,-4.0349,-4.0441,-4.0464,-4.0506,-4.0591,-4.0619,-4.0721,-4.0733,-4.0856,-4.0851,-4.0835,-4.0836,-4.0905,-4.0898,-4.1126,-4.1157,-4.0971,-4.0972,-4.0974,0,-3.9761,-3.9855,-3.9896,-3.9963,-4.0068,-4.0087,-4.019,-4.0223,-4.0277,-4.035,-4.0347,-4.0415,-4.044,-4.0512,-4.0529,-4.0634,-4.0653,-4.0668,-4.0672,-4.0669,-4.0667,-4.0697,-4.0688,-4.0677,-4.0675,-4.0674,-4.0673,0,-3.961,-3.9742,-3.985,-3.9885,-3.9966,-4.0017,-4.0053,-4.0112,-4.0162,-4.023,-4.0262,-4.034,-4.0383,-4.0443,-4.0464,-4.0421,-4.0593,-4.0538,-4.0609,-4.0608,-4.0645,-4.0643,-4.0837,-4.0672,-4.0672,-4.0671,-4.0671,0,-3.9511,-3.9581,-3.9733,-3.9801,-3.9835,-3.9906,-3.9984,-4.0051,-4.0115,-4.013,-4.0184,-4.0185,-4.0278,-4.0222,-4.0351,-4.0288,-4.0331,-4.0354,-4.0359,-4.0369,-4.0305,-4.0411,-4.0593,-4.0614,-4.0379,-4.0376,-4.0374,0,-3.933,-3.9493,-3.951,-3.9655,-3.9733,-3.9725,-3.9804,-3.986,-3.9888,-3.9958,-3.9988,-4.0068,-4.0031,-4.006,-4.012,-4.0154,-4.0236,-4.0144,-4.0244,-4.0248,-4.0229,-4.0396,-4.0417,-4.055,-4.0343,-4.0346,-4.0349,0,-3.9194,-3.9292,-3.9316,-3.9357,-3.9434,-3.95,-3.9591,-3.9674,-3.972,-3.9783,-3.986,-3.9972,-3.9949,-3.9996,-4.0005,-4.0066,-4.0181,-4.0033,-4.0035,-4.0059,-4.033,-4.0349,-4.0371,-4.0173,-4.0177,-4.018,-4.0324,0,-3.9039,-3.9123,-3.9191,-3.928,-3.9335,-3.9426,-3.9456,-3.951,-3.9513,-3.954,-3.9652,-3.9705,-3.9789,-3.9821,-3.9824,-3.9956,-3.9938,-3.9912,-3.9859,-3.9969,-4.0017,-4.0037,-3.9785,-3.9783,-3.9782,-3.9781,0,0,-3.8858,-3.898,-3.8996,-3.9085,-3.9132,-3.9122,-3.9217,-3.9262,-3.9352,-3.9385,-3.9355,-3.9521,-3.9564,-3.9698,-3.9734,-3.9768,-3.9794,-3.9755,-3.9916,-3.9931,-3.9945,-3.9996,-4.0016,-3.9779,-3.9779,-3.9778,-3.9778,0,-3.8807,-3.8853,-3.8947,-3.8994,-3.9065,-3.9088,-3.9111,-3.9178,-3.92,-3.931,-3.9299,-3.937,-3.9502,-3.955,-3.9591,-3.9739,-3.9727,-3.9763,-3.9833,-3.9903,-3.992,-3.9934,-3.9988,-4.0007,-3.9775,-3.9775,-3.9775,0,-3.8678,-3.8728,-3.8777,-3.8884,-3.8929,-3.901,-3.8962,-3.9049,-3.9109,-3.9091,-3.9201,-3.9234,-3.93,-3.9422,-3.9478,-3.9453,-3.9664,-3.9602,-3.961,-3.9617,-3.9686,-3.9706,-3.9723,-3.9491,-3.949,-3.9489,0,0,-3.863,-3.8709,-3.8769,-3.8875,-3.8905,-3.8941,-3.8987,-3.8995,-3.9055,-3.9079,-3.912,-3.9179,-3.9255,-3.9305,-3.9378,-3.9508,-3.9523,-3.9566,-3.9579,-3.959,-3.9602,-3.9674,-3.9694,-3.9485,-3.9485,-3.9485,0,0,-3.8607,-3.8681,-3.8674,-3.8801,-3.8859,-3.8924,-3.8988,-3.898,-3.9049,-3.9041,-3.9057,-3.9074,-3.9188,-3.9221,-3.9162,-3.936,-3.9306,-3.9321,-3.9334,-3.9352,-3.9365,-3.9355,-3.9119,0,0,0,0,0,-3.8571,-3.8672,-3.8664,-3.869,-3.8825,-3.8928,-3.8945,-3.8962,-3.8924,-3.8974,-3.9008,-3.8991,-3.9192,-3.9141,-3.9165,-3.9231,-3.9431,-3.9441,-3.945,-3.9498,-3.9515,-3.953,0,0,0,0,0,0,-3.8581,-3.8612,-3.8662,-3.8731,-3.8762,-3.8925,-3.8864,-3.8871,-3.8919,-3.8914,-3.8985,-3.8993,-3.9008,-3.9129,-3.9151,-3.9213,-3.9111,-3.9435,-3.9443,-3.945,-3.9504,-3.9518,-3.9531,0,0,0,0,0,-3.8589,-3.8614,-3.8826,-3.873,-3.8756,-3.8802,-3.886,-3.8866,-3.8903,-3.8955,-3.8963,-3.8911,-3.901,-3.9029,-3.9142,-3.9202,-3.9096,-3.9104,-3.944,-3.9446,-3.9452,-3.9511,0,0,0,0,0,0,-3.8595,-3.862,-3.8832,-3.884,-3.8693,-3.8793,-3.881,-3.8861,-3.8941,-3.895,-3.8881,-3.8877,-3.9012,-3.9027,-3.9042,-3.9198,-3.9084,-3.9092,-3.9097,-3.9445,-3.945,-3.9454,0,0,0,0,0,0,-3.8606,-3.8627,-3.8836,-3.8788,-3.8792,-3.8785,-3.88,-3.8897,-3.8942,-3.8863,-3.8861,-3.8878,-3.8988,-3.9025,-3.9037,-3.9189,-3.9074,-3.9082,-3.9088,-3.9091,-3.9449,-3.9453,0,0,0,0,0,0,-3.8615,-3.8633,-3.8786,-3.8789,-3.8791,-3.8889,-3.8872,-3.9008,-3.8902,-3.8859,-3.8893,-3.8889,-3.8988,-3.9,-3.9034,-3.9181,-3.9187,-3.9074,-3.908,-3.9084,-3.9086,0,0,0,0,0,0,0,-3.8623,-3.8499,-3.8781,-3.8789,-3.8791,-3.892,-3.8922,-3.8925,-3.8901,-3.8897,-3.8894,-3.889,-3.9028,-3.9037,-3.9046,-3.9174,0,0,-3.9074,-3.9077,0,0,0,0,0,0,0,0,-3.8492,-3.8497,-3.8781,-3.8783,-3.8784,-3.892,-3.8922,-3.8924,-3.89,-3.8897,-3.8895,-3.8892,-3.9031,-3.9038,-3.9045,0,0,0,0,0,0,0,0,0,0,0,0,0,0,0,-3.8781,-3.8783,0,-3.8921,-3.8922,-3.8924,-3.89,-3.8898,-3.8895,-3.8893,-3.9033,-3.9039,-3.9045,0,0,0,0,0,0,0,0,0,0,0,0,0,0,0,0,0,0,0,0,0,0,0,0,0,0,0,0,0,0,0,0,0,0,0,0,0,0,0,0,0,0,0,0,0,0,0,0,0,0,0,0,0,0,0,0,0,0,0,0,0,0,0,0,0,0,0,0,0]}]]]